Molokai, HI

10:41 PM HST on July 25, 2017 (GMT -1000)
Molokai

Weather History for PHMK - March, 2013

Change the Weather History Date:

Saturday, March 23, 2013

  Actual Average Record
Temperature  
Mean Temperature 70 °F -  
Max Temperature 73 °F 78 °F 84 °F (1981)
Min Temperature 66 °F 64 °F 51 °F (1986)
Cooling Degree Days 4    
Growing Degree Days 20 (Base 50)    
Moisture  
Dew Point 65 °F    
Average Humidity 90    
Maximum Humidity 100    
Minimum Humidity 71    
Precipitation  
Precipitation 0.63 in - - ()
Sea Level Pressure  
Sea Level Pressure 30.01 in    
Wind  
Wind Speed 5 mph (North)    
Max Wind Speed 20 mph    
Max Gust Speed 26 mph    
Visibility 8 miles    
Events Rain    
Averages and records for this station are not official NWS values.
T = Trace of Precipitation, MM = Missing Value Source: NWS Daily Summary

Daily Weather History Graph

Daily Weather History Graph

Search for Another Location

Airport or City:

Trip Planner

Search our weather history database for the weather conditions in past years. The results will help you decide how hot, cold, wet, or windy it might be!

Date:

Astronomy

Mar. 23, 2013 Rise Set
Actual Time 6:29 AM HST 6:40 PM HST
Civil Twilight 6:07 AM HST 7:02 PM HST
Nautical Twilight 5:41 AM HST 7:28 PM HST
Astronomical Twilight 5:15 AM HST 7:54 PM HST
Moon 3:39 PM HST (3/23) 3:48 AM HST (3/23)
Length of Visible Light 12h 55m
Length of Day
12h 11m
Waxing Gibbous, 86% of the Moon is Illuminated
Mar 23
Waxing Gibbous
Mar 26
Full
Apr 2
Last Quarter
Apr 9
New
Apr 18
First Quarter

Hourly Weather History & Observations

Time (HST) Temp. Dew Point Humidity Pressure Visibility Wind Dir Wind Speed Gust Speed Precip Events Conditions
12:14 AM 68.0 °F 66.2 °F 94% 30.01 in 3.0 mi Calm Calm - 0.15 in Rain Heavy Rain
12:41 AM 68.0 °F 66.2 °F 94% 30.00 in 10.0 mi Calm Calm - 0.24 in   Overcast
12:54 AM 68.0 °F 66.0 °F 93% 30.01 in 10.0 mi Calm Calm - 0.24 in   Overcast
1:20 AM 68.0 °F 66.2 °F 94% 29.99 in 8.0 mi NNW 3.5 mph - 0.00 in Rain Light Rain
1:33 AM 68.0 °F 66.2 °F 94% 29.99 in 10.0 mi NW 3.5 mph - 0.00 in   Mostly Cloudy
1:40 AM 68.0 °F 66.2 °F 94% 29.99 in 10.0 mi NW 3.5 mph - 0.00 in   Mostly Cloudy
1:54 AM 68.0 °F 66.9 °F 96% 29.99 in 10.0 mi North 3.5 mph - 0.00 in   Mostly Cloudy
2:01 AM 68.0 °F 66.2 °F 94% 29.98 in 10.0 mi NNE 3.5 mph - N/A   Mostly Cloudy
2:13 AM 68.0 °F 66.2 °F 94% 29.98 in 10.0 mi North 3.5 mph - N/A   Overcast
2:54 AM 66.9 °F 66.0 °F 97% 29.99 in 10.0 mi Calm Calm - N/A   Overcast
3:08 AM 68.0 °F 66.2 °F 94% 29.97 in 10.0 mi Calm Calm - N/A   Overcast
3:20 AM 68.0 °F 66.2 °F 94% 29.96 in 10.0 mi North 5.8 mph - N/A   Overcast
3:39 AM 68.0 °F 66.2 °F 94% 29.96 in 5.0 mi NNW 6.9 mph - 0.00 in Rain Light Rain
3:44 AM 68.0 °F 66.2 °F 94% 29.97 in 5.0 mi NNW 6.9 mph - 0.00 in Rain Light Rain
3:54 AM 68.0 °F 66.9 °F 96% 29.98 in 6.0 mi NNW 6.9 mph - 0.01 in Rain Light Rain
4:16 AM 68.0 °F 66.2 °F 94% 29.97 in 7.0 mi NNW 4.6 mph - 0.01 in Rain Light Rain
4:30 AM 68.0 °F 66.2 °F 94% 29.96 in 10.0 mi North 6.9 mph - 0.01 in   Overcast
4:51 AM 68.0 °F 66.2 °F 94% 29.97 in 9.0 mi North 6.9 mph - 0.01 in Rain Light Rain
4:54 AM 68.0 °F 66.0 °F 93% 29.98 in 9.0 mi North 6.9 mph - 0.01 in Rain Light Rain
5:12 AM 68.0 °F 66.2 °F 94% 29.97 in 10.0 mi North 4.6 mph - 0.00 in Rain Light Rain
5:54 AM 68.0 °F 66.0 °F 93% 30.00 in 7.0 mi North 4.6 mph - 0.00 in Rain Light Rain
6:11 AM 68.0 °F 66.2 °F 94% 29.99 in 3.0 mi Calm Calm - 0.04 in Rain Rain
6:20 AM 68.0 °F 66.2 °F 94% 29.99 in 2.5 mi ENE 3.5 mph - 0.13 in Rain Heavy Rain
6:22 AM 68.0 °F 66.2 °F 94% 29.99 in 3.0 mi Variable 4.6 mph - 0.14 in Rain Heavy Rain
6:32 AM 68.0 °F 66.2 °F 94% 29.99 in 2.5 mi Calm Calm - 0.17 in Rain Heavy Rain
6:34 AM 68.0 °F 66.2 °F 94% 30.00 in 1.8 mi Calm Calm - 0.21 in Rain Rain
6:43 AM 68.0 °F 66.2 °F 94% 30.00 in 3.0 mi Calm Calm - 0.28 in Rain Rain
6:54 AM 68.0 °F 66.0 °F 93% 30.02 in 4.0 mi North 6.9 mph - 0.29 in Rain Rain
7:01 AM 68.0 °F 66.2 °F 94% 30.01 in 8.0 mi North 4.6 mph - 0.00 in Rain Rain
7:27 AM 68.0 °F 66.2 °F 94% 30.02 in 3.0 mi NNW 9.2 mph - 0.02 in Rain Rain
7:31 AM 66.2 °F 66.2 °F 100% 30.03 in 2.5 mi NNW 10.4 mph - 0.04 in Rain Rain
7:35 AM 66.2 °F 66.2 °F 100% 30.03 in 3.0 mi NNW 12.7 mph - 0.04 in Rain Rain
7:50 AM 66.2 °F 66.2 °F 100% 30.03 in 3.0 mi North 11.5 mph - 0.08 in Rain Rain
7:54 AM 66.9 °F 66.0 °F 97% 30.04 in 5.0 mi North 9.2 mph 18.4 mph 0.08 in Rain Rain
8:15 AM 66.2 °F 66.2 °F 100% 30.04 in 10.0 mi North 8.1 mph - 0.00 in Rain Rain
8:43 AM 66.2 °F 64.4 °F 94% 30.05 in 10.0 mi North 9.2 mph - 0.00 in Rain Rain
8:54 AM 66.9 °F 64.9 °F 93% 30.07 in 10.0 mi North 8.1 mph - 0.00 in Rain Rain
9:54 AM 69.1 °F 66.0 °F 90% 30.06 in 10.0 mi North 12.7 mph - 0.00 in Rain Rain
10:01 AM 69.8 °F 66.2 °F 88% 30.05 in 10.0 mi North 9.2 mph - 0.00 in Rain Rain
10:54 AM 71.1 °F 64.9 °F 81% 30.06 in 10.0 mi North 9.2 mph 18.4 mph 0.00 in Rain Rain
11:54 AM 71.1 °F 64.0 °F 78% 30.04 in 9.0 mi NNE 12.7 mph 18.4 mph 0.00 in Rain Rain
12:01 PM 71.6 °F 64.4 °F 78% 30.02 in 10.0 mi North 11.5 mph 18.4 mph 0.00 in Rain Rain
12:54 PM 72.0 °F 63.0 °F 73% 30.02 in 10.0 mi NNE 9.2 mph 24.2 mph 0.00 in Rain Rain
1:01 PM 71.6 °F 62.6 °F 73% 30.00 in 10.0 mi NNE 19.6 mph 26.5 mph 0.00 in Rain Rain
1:54 PM 73.0 °F 63.0 °F 71% 29.99 in 10.0 mi NNE 13.8 mph 21.9 mph 0.00 in Rain Rain
2:54 PM 71.1 °F 63.0 °F 75% 29.98 in 10.0 mi NE 10.4 mph 19.6 mph 0.00 in   Mostly Cloudy
3:54 PM 71.1 °F 64.0 °F 78% 29.97 in 10.0 mi NNE 12.7 mph 24.2 mph N/A   Mostly Cloudy
4:41 PM 69.8 °F 64.4 °F 83% 29.97 in 6.0 mi NNE 9.2 mph 17.3 mph 0.00 in Rain Light Rain
4:54 PM 69.1 °F 64.0 °F 84% 29.98 in 10.0 mi NNE 8.1 mph 17.3 mph 0.00 in   Overcast
5:17 PM 69.8 °F 64.4 °F 83% 29.98 in 8.0 mi NNE 6.9 mph - N/A   Mostly Cloudy
5:54 PM 68.0 °F 64.0 °F 87% 30.01 in 8.0 mi NNE 6.9 mph - 0.00 in   Mostly Cloudy
6:24 PM 66.2 °F 62.6 °F 88% 30.00 in 10.0 mi NNE 9.2 mph - N/A   Mostly Cloudy
6:54 PM 66.9 °F 63.0 °F 87% 30.02 in 10.0 mi Variable 4.6 mph - N/A   Mostly Cloudy
7:07 PM 68.0 °F 64.4 °F 88% 30.01 in 10.0 mi NE 5.8 mph - N/A   Mostly Cloudy
7:45 PM 68.0 °F 64.4 °F 88% 30.03 in 10.0 mi NNE 6.9 mph - N/A   Overcast
7:54 PM 66.9 °F 64.0 °F 90% 30.05 in 10.0 mi NNE 6.9 mph - N/A   Overcast
8:09 PM 66.2 °F 62.6 °F 88% 30.02 in 10.0 mi NNE 8.1 mph - N/A   Scattered Clouds
8:25 PM 66.2 °F 64.4 °F 94% 30.03 in 9.0 mi NNE 9.2 mph - N/A   Scattered Clouds
8:36 PM 66.2 °F 64.4 °F 94% 30.04 in 8.0 mi NNE 8.1 mph - N/A   Mostly Cloudy
8:54 PM 66.9 °F 64.9 °F 93% 30.06 in 10.0 mi NE 10.4 mph 17.3 mph N/A   Overcast
9:06 PM 66.2 °F 64.4 °F 94% 30.06 in 10.0 mi NE 6.9 mph - N/A   Overcast
9:54 PM 68.0 °F 64.0 °F 87% 30.07 in 10.0 mi NNE 5.8 mph - N/A   Overcast
10:07 PM 68.0 °F 64.4 °F 88% 30.05 in 10.0 mi NNE 9.2 mph - N/A   Overcast
10:54 PM 68.0 °F 63.0 °F 84% 30.04 in 10.0 mi NNE 9.2 mph 17.3 mph N/A   Clear
11:54 PM 68.0 °F 64.9 °F 90% 30.03 in 10.0 mi NNE 9.2 mph 16.1 mph N/A   Clear